カタログに戻る

CZ-4B DEB

運用中SSO
NORAD 35404·DEBRIS·🇨🇳 China

打ち上げ May 15, 2002 から Taiyuan Satellite Launch Center

Loading…

次のパス (今後24時間)

TLE

最新Source: Space-Track

元期: Sep 14, 2026, 09:18 UTC

1 35404U 02024J   26257.38816154  .00000018  00000-0  29105-4 0  9992
2 35404  98.8060 304.6892 0051378 308.4804 116.3941 14.20018960254582

AllMySatでCZ-4B DEBをリアルタイム追跡

Download on the App Store